Fairbanks Ft. Wainwright, AK

2:38 AM AKDT on August 14, 2018 (GMT -0800)
Ladd Army Air Field

Weather History for PAFB - May, 2018

Change the Weather History Date:

Thursday, May 17, 2018

  Actual Average Record
Temperature  
Mean Temperature 44 °F -  
Max Temperature 55 °F 57 °F 79 °F (2015)
Min Temperature 33 °F 38 °F 26 °F (2013)
Degree Days  
Heating Degree Days 21    
Moisture  
Dew Point 32 °F    
Average Humidity 58    
Maximum Humidity 85    
Minimum Humidity 38    
Precipitation  
Precipitation 0.00 in - - ()
Sea Level Pressure  
Sea Level Pressure 30.18 in    
Wind  
Wind Speed 1 mph (East)    
Max Wind Speed 6 mph    
Max Gust Speed -    
Visibility 9 miles    
Events      
Averages and records for this station are not official NWS values.
T = Trace of Precipitation, MM = Missing Value Source: NWS Daily Summary

Daily Weather History Graph

Daily Weather History Graph

Search for Another Location

Airport or City:

Astronomy

May. 17, 2018 Rise Set
Actual Time 4:19 AM AKDT 11:16 PM AKDT
Civil Twilight 2:19 AM AKDT 1:14 AM AKDT
Nautical Twilight Sun does not set Sun does not set
Astronomical Twilight Sun does not set Sun does not set
Moon 6:31 AM AKDT (5/17) 12:50 AM AKDT (5/17)
Length of Visible Light 22h 55m
Length of Day
18h 56m
Waxing Crescent, 8% of the Moon is Illuminated
May 17
Waxing Crescent
May 21
First Quarter
May 29
Full
Jun 6
Last Quarter
Jun 13
New

Hourly Weather History & Observations

Time (AKDT) Temp. Windchill Dew Point Humidity Pressure Visibility Wind Dir Wind Speed Gust Speed Precip Events Conditions
12:58 AM 42.4 °F - 30.4 °F 62% 30.19 in 7.0 mi Calm Calm - N/A   Clear
1:58 AM 37.4 °F - 29.8 °F 74% 30.21 in 7.0 mi Calm Calm - N/A   Clear
2:58 AM 36.3 °F - 28.9 °F 75% 30.22 in 9.0 mi Calm Calm - N/A   Partly Cloudy
3:58 AM 33.3 °F - 28.6 °F 83% 30.22 in 7.0 mi Calm Calm - N/A   Clear
4:58 AM 34.5 °F - 29.3 °F 81% 30.22 in 10.0 mi Calm Calm - N/A   Mostly Cloudy
5:58 AM 34.2 °F 31.2 °F 30.2 °F 85% 30.23 in 9.0 mi East 3.5 mph - N/A   Overcast
6:58 AM 35.6 °F 31.7 °F 29.5 °F 78% 30.23 in 9.0 mi ENE 4.6 mph - N/A   Overcast
7:58 AM 38.3 °F 35.9 °F 31.1 °F 75% 30.23 in 9.0 mi ENE 3.5 mph - N/A   Mostly Cloudy
8:58 AM 41.7 °F 38.8 °F 31.8 °F 68% 30.22 in 10.0 mi ENE 4.6 mph - N/A   Mostly Cloudy
9:58 AM 47.5 °F - 32.2 °F 55% 30.21 in 10.0 mi ENE 3.5 mph - N/A   Mostly Cloudy
10:58 AM 50.2 °F - 33.3 °F 52% 30.21 in 10.0 mi Calm Calm - N/A   Mostly Cloudy
11:58 AM 51.8 °F - 33.4 °F 50% 30.19 in 10.0 mi WNW 4.6 mph - N/A   Overcast
12:58 PM 51.4 °F - 32.9 °F 49% 30.20 in 10.0 mi Calm Calm - N/A   Overcast
1:58 PM 53.1 °F - 32.7 °F 46% 30.18 in 10.0 mi NNE 4.6 mph - N/A   Overcast
2:58 PM 53.8 °F - 32.9 °F 45% 30.17 in 10.0 mi Calm Calm - N/A   Overcast
3:58 PM 55.8 °F - 30.6 °F 38% 30.16 in 10.0 mi SSW 5.8 mph - N/A   Overcast
4:58 PM 54.9 °F - 30.2 °F 39% 30.15 in 10.0 mi Calm Calm - N/A   Overcast
5:58 PM 55.2 °F - 30.7 °F 39% 30.14 in 10.0 mi South 3.5 mph - N/A   Overcast
6:58 PM 54.9 °F - 30.9 °F 40% 30.14 in 10.0 mi SW 3.5 mph - N/A   Overcast
7:58 PM 54.9 °F - 31.6 °F 41% 30.13 in 10.0 mi Calm Calm - N/A   Overcast
8:58 PM 54.7 °F - 33.4 °F 45% 30.13 in 10.0 mi Calm Calm - N/A   Overcast
9:58 PM 53.6 °F - 34.0 °F 47% 30.12 in 10.0 mi Calm Calm - N/A   Overcast
10:58 PM 50.2 °F - 36.7 °F 60% 30.12 in 9.0 mi Calm Calm - N/A   Overcast
11:58 PM 48.9 °F - 36.9 °F 63% 30.11 in 10.0 mi Calm Calm - N/A   Overcast